Torna al catalogo

COSMOS 831

AttivoNavigazioneLEO
NORAD 8895·PAYLOAD·🇷🇺 Russia

Lanciato Jun 15, 1976 da Plesetsk Cosmodrome

Loading…

Prossimi Passaggi (prossime 24 ore)

TLE

AggiornatoSource: Space-Track

Epoca: Sep 14, 2026, 06:38 UTC

1 08895U 76054G   26257.27680654 -.00000018  00000-0 -19037-4 0  9997
2 08895  73.9973  89.6670 0020753 359.4906 111.1163 12.43748967281375

Traccia COSMOS 831 in tempo reale con AllMySat

Download on the App Store